User: anonymous   Login
Location: Unspecified
(0.0000°N, 0.0000°E)
Time: 11:59:04
(UTC+00:00)
Language:

DSP F5R - Orbit

View from above orbital plane
View from above orbital plane
View from above satellite
View from above satellite

Ground track
Ground track

The orbit data is extracted from the following two-line orbital elements,

1 18583U 87097A   17254.25118104 0.00000000  00000-0  00000-0 0    00
2 18583  14.4563   2.1964 0024139 201.9959 157.9124  0.98382640    05
Epoch (UTC): 11 September 2017 06:01:42
Eccentricity: 0.0024139
inclination: 14.4563°
perigee height: 36221 km
apogee height: 36427 km
right ascension of ascending node: 2.1964°
argument of perigee: 201.9959°
revolutions per day: 0.98382640
mean anomaly at epoch: 157.9124°
orbit number at epoch: 0

The dashed part of the orbit path shows where the satellite is in the earth's shadow,  

DLR